000000,22.3083, 29 Oct 2015, 00:00:34
000030,22.3079, 29 Oct 2015, 00:01:04
000100,22.3064, 29 Oct 2015, 00:01:34
000130,22.3073, 29 Oct 2015, 00:02:05
000200,22.3069, 29 Oct 2015, 00:02:34
000230,22.307, 29 Oct 2015, 00:03:04
000300,22.3066, 29 Oct 2015, 00:03:34
000330,22.3061, 29 Oct 2015, 00:04:04
000400,22.3059, 29 Oct 2015, 00:04:35
000430,22.3051, 29 Oct 2015, 00:05:05
000500,22.3056, 29 Oct 2015, 00:05:35
000530,22.3062, 29 Oct 2015, 00:06:05
000600,22.3067, 29 Oct 2015, 00:06:35
000630,22.3067, 29 Oct 2015, 00:07:05
000700,22.3062, 29 Oct 2015, 00:07:35
000730,22.3047, 29 Oct 2015, 00:08:05
000830,22.3007, 29 Oct 2015, 00:09:05
000900,22.3004, 29 Oct 2015, 00:09:35
000930,22.3005, 29 Oct 2015, 00:10:05
001000,22.3, 29 Oct 2015, 00:10:35
001030,22.3003, 29 Oct 2015, 00:11:05
001100,22.3005, 29 Oct 2015, 00:11:35
001130,22.3003, 29 Oct 2015, 00:12:05
001200,22.3001, 29 Oct 2015, 00:12:35
001230,22.2992, 29 Oct 2015, 00:13:04
001300,22.297, 29 Oct 2015, 00:13:35
001330,22.295, 29 Oct 2015, 00:14:05
001400,22.2944, 29 Oct 2015, 00:14:35
001430,22.2947, 29 Oct 2015, 00:15:04
001500,22.2957, 29 Oct 2015, 00:15:35
001530,22.2963, 29 Oct 2015, 00:16:05
001600,22.296, 29 Oct 2015, 00:16:35
001630,22.2951, 29 Oct 2015, 00:17:04
001700,22.2945, 29 Oct 2015, 00:17:35
001730,22.2937, 29 Oct 2015, 00:18:05
001800,22.2921, 29 Oct 2015, 00:18:35
001830,22.2904, 29 Oct 2015, 00:19:04
001900,22.289, 29 Oct 2015, 00:19:34
001930,22.2866, 29 Oct 2015, 00:20:05
002000,22.2857, 29 Oct 2015, 00:20:35
002100,22.2848, 29 Oct 2015, 00:21:34
002130,22.2856, 29 Oct 2015, 00:22:05
002200,22.2863, 29 Oct 2015, 00:22:35
002230,22.2849, 29 Oct 2015, 00:23:05
002300,22.2858, 29 Oct 2015, 00:23:34
002330,22.2843, 29 Oct 2015, 00:24:05
002400,22.2834, 29 Oct 2015, 00:24:35
002430,22.2833, 29 Oct 2015, 00:25:04
002500,22.282, 29 Oct 2015, 00:25:34
002530,22.2813, 29 Oct 2015, 00:26:04
002600,22.2803, 29 Oct 2015, 00:26:35
002630,22.2812, 29 Oct 2015, 00:27:04
002700,22.2794, 29 Oct 2015, 00:27:34
002730,22.2776, 29 Oct 2015, 00:28:04
002800,22.2773, 29 Oct 2015, 00:28:35
002830,22.2768, 29 Oct 2015, 00:29:05
002900,22.2785, 29 Oct 2015, 00:29:34
002930,22.2801, 29 Oct 2015, 00:30:04
003000,22.2814, 29 Oct 2015, 00:30:35
003030,22.2828, 29 Oct 2015, 00:31:05
003100,22.2849, 29 Oct 2015, 00:31:34
003130,22.2859, 29 Oct 2015, 00:32:04
003200,22.2858, 29 Oct 2015, 00:32:35
003230,22.2858, 29 Oct 2015, 00:33:05
003300,22.2857, 29 Oct 2015, 00:33:34
003330,22.2857, 29 Oct 2015, 00:34:04
003400,22.2859, 29 Oct 2015, 00:34:34
003430,22.2866, 29 Oct 2015, 00:35:04
003500,22.2875, 29 Oct 2015, 00:35:34
003530,22.2892, 29 Oct 2015, 00:36:04
003600,22.2902, 29 Oct 2015, 00:36:34
003630,22.291, 29 Oct 2015, 00:37:05
003700,22.2911, 29 Oct 2015, 00:37:34
003730,22.2906, 29 Oct 2015, 00:38:04
003800,22.2912, 29 Oct 2015, 00:38:34
003830,22.2923, 29 Oct 2015, 00:39:05
003900,22.293, 29 Oct 2015, 00:39:34
003930,22.2936, 29 Oct 2015, 00:40:04
004000,22.2936, 29 Oct 2015, 00:40:34
004030,22.2946, 29 Oct 2015, 00:41:05
004100,22.2954, 29 Oct 2015, 00:41:34
004130,22.2951, 29 Oct 2015, 00:42:04
004200,22.2948, 29 Oct 2015, 00:42:34
004230,22.2953, 29 Oct 2015, 00:43:05
004300,22.2942, 29 Oct 2015, 00:43:34
004330,22.2928, 29 Oct 2015, 00:44:04
004400,22.2921, 29 Oct 2015, 00:44:34
004430,22.2928, 29 Oct 2015, 00:45:04
004500,22.294, 29 Oct 2015, 00:45:35
004530,22.2944, 29 Oct 2015, 00:46:05
004600,22.2953, 29 Oct 2015, 00:46:35
004630,22.2948, 29 Oct 2015, 00:47:05
004700,22.2955, 29 Oct 2015, 00:47:35
004730,22.298, 29 Oct 2015, 00:48:05
004800,22.2998, 29 Oct 2015, 00:48:35
004830,22.2995, 29 Oct 2015, 00:49:05
004900,22.2997, 29 Oct 2015, 00:49:35
004930,22.2976, 29 Oct 2015, 00:50:05
005000,22.2975, 29 Oct 2015, 00:50:35
005030,22.2968, 29 Oct 2015, 00:51:05
005100,22.297, 29 Oct 2015, 00:51:35
005130,22.2983, 29 Oct 2015, 00:52:05
005200,22.298, 29 Oct 2015, 00:52:35
005230,22.2982, 29 Oct 2015, 00:53:05
005300,22.2995, 29 Oct 2015, 00:53:34
005330,22.2992, 29 Oct 2015, 00:54:05
005400,22.2994, 29 Oct 2015, 00:54:35
005500,22.2995, 29 Oct 2015, 00:55:34
005530,22.3, 29 Oct 2015, 00:56:05
005600,22.3007, 29 Oct 2015, 00:56:35
005630,22.3008, 29 Oct 2015, 00:57:05
005700,22.3006, 29 Oct 2015, 00:57:34
005730,22.3011, 29 Oct 2015, 00:58:05
005800,22.3007, 29 Oct 2015, 00:58:35
005830,22.3004, 29 Oct 2015, 00:59:05
005900,22.3013, 29 Oct 2015, 00:59:34
005930,22.3012, 29 Oct 2015, 01:00:05
010000,22.3, 29 Oct 2015, 01:00:35
010030,22.299, 29 Oct 2015, 01:01:05
010100,22.2976, 29 Oct 2015, 01:01:34
010130,22.2959, 29 Oct 2015, 01:02:04
010200,22.2937, 29 Oct 2015, 01:02:35
010230,22.2924, 29 Oct 2015, 01:03:05
010300,22.2901, 29 Oct 2015, 01:03:35
010330,22.2891, 29 Oct 2015, 01:04:04
010400,22.2882, 29 Oct 2015, 01:04:35
010430,22.2873, 29 Oct 2015, 01:05:05
010530,22.284, 29 Oct 2015, 01:06:04
010600,22.2831, 29 Oct 2015, 01:06:34
010630,22.2809, 29 Oct 2015, 01:07:05
010700,22.2794, 29 Oct 2015, 01:07:35
010730,22.277, 29 Oct 2015, 01:08:04
010800,22.2755, 29 Oct 2015, 01:08:34
010830,22.2758, 29 Oct 2015, 01:09:05
010900,22.2777, 29 Oct 2015, 01:09:35
011000,22.2827, 29 Oct 2015, 01:10:34
011030,22.2826, 29 Oct 2015, 01:11:04
011100,22.2834, 29 Oct 2015, 01:11:35
011130,22.286, 29 Oct 2015, 01:12:05
011200,22.2874, 29 Oct 2015, 01:12:34
011230,22.2897, 29 Oct 2015, 01:13:04
011300,22.2922, 29 Oct 2015, 01:13:35
011330,22.2937, 29 Oct 2015, 01:14:05
011400,22.2957, 29 Oct 2015, 01:14:34
011430,22.2986, 29 Oct 2015, 01:15:04
011500,22.3001, 29 Oct 2015, 01:15:35
011530,22.3005, 29 Oct 2015, 01:16:04
011600,22.3011, 29 Oct 2015, 01:16:34
011630,22.3009, 29 Oct 2015, 01:17:04
011700,22.3015, 29 Oct 2015, 01:17:34
011730,22.3021, 29 Oct 2015, 01:18:05
011800,22.3024, 29 Oct 2015, 01:18:34
011830,22.3029, 29 Oct 2015, 01:19:04
011900,22.3046, 29 Oct 2015, 01:19:34
011930,22.306, 29 Oct 2015, 01:20:05
012000,22.3071, 29 Oct 2015, 01:20:34
012030,22.3083, 29 Oct 2015, 01:21:04
012100,22.3092, 29 Oct 2015, 01:21:34
012130,22.311, 29 Oct 2015, 01:22:05
012200,22.3108, 29 Oct 2015, 01:22:34
012230,22.3115, 29 Oct 2015, 01:23:04
012300,22.3124, 29 Oct 2015, 01:23:34
012330,22.3126, 29 Oct 2015, 01:24:05
012400,22.314, 29 Oct 2015, 01:24:34
012430,22.3145, 29 Oct 2015, 01:25:04
012500,22.314, 29 Oct 2015, 01:25:35
012600,22.3161, 29 Oct 2015, 01:26:35
012630,22.3178, 29 Oct 2015, 01:27:05
012700,22.3199, 29 Oct 2015, 01:27:35
012730,22.3218, 29 Oct 2015, 01:28:05
012800,22.3227, 29 Oct 2015, 01:28:35
012830,22.3228, 29 Oct 2015, 01:29:05
012900,22.324, 29 Oct 2015, 01:29:35
012930,22.3253, 29 Oct 2015, 01:30:05
013000,22.3265, 29 Oct 2015, 01:30:35
013030,22.3275, 29 Oct 2015, 01:31:05
013100,22.3276, 29 Oct 2015, 01:31:35
013130,22.3272, 29 Oct 2015, 01:32:05
013200,22.3281, 29 Oct 2015, 01:32:35
013230,22.3294, 29 Oct 2015, 01:33:05
013300,22.3309, 29 Oct 2015, 01:33:35
013330,22.3309, 29 Oct 2015, 01:34:05
013400,22.331, 29 Oct 2015, 01:34:35
013430,22.3312, 29 Oct 2015, 01:35:05
013500,22.3318, 29 Oct 2015, 01:35:35
013600,22.3329, 29 Oct 2015, 01:36:34
013630,22.3319, 29 Oct 2015, 01:37:05
013700,22.3318, 29 Oct 2015, 01:37:35
013730,22.3323, 29 Oct 2015, 01:38:05
013800,22.332, 29 Oct 2015, 01:38:34
013830,22.331, 29 Oct 2015, 01:39:05
013900,22.3307, 29 Oct 2015, 01:39:35
013930,22.3302, 29 Oct 2015, 01:40:05
014000,22.3298, 29 Oct 2015, 01:40:34
014030,22.3297, 29 Oct 2015, 01:41:05
014100,22.3304, 29 Oct 2015, 01:41:35
014130,22.329, 29 Oct 2015, 01:42:05
014200,22.328, 29 Oct 2015, 01:42:34
014230,22.3267, 29 Oct 2015, 01:43:05
014300,22.325, 29 Oct 2015, 01:43:35
014330,22.3232, 29 Oct 2015, 01:44:05
014400,22.3232, 29 Oct 2015, 01:44:34
014430,22.3218, 29 Oct 2015, 01:45:05
014500,22.3199, 29 Oct 2015, 01:45:35
014530,22.3204, 29 Oct 2015, 01:46:04
014600,22.322, 29 Oct 2015, 01:46:34
014630,22.3218, 29 Oct 2015, 01:47:05
014700,22.3219, 29 Oct 2015, 01:47:35
014800,22.3183, 29 Oct 2015, 01:48:34
014830,22.3162, 29 Oct 2015, 01:49:04
014900,22.3142, 29 Oct 2015, 01:49:35
014930,22.3118, 29 Oct 2015, 01:50:05
015000,22.3083, 29 Oct 2015, 01:50:34
015030,22.303, 29 Oct 2015, 01:51:04
015100,22.2997, 29 Oct 2015, 01:51:35
015130,22.297, 29 Oct 2015, 01:52:05
015200,22.2947, 29 Oct 2015, 01:52:34
015230,22.2924, 29 Oct 2015, 01:53:04
015300,22.2889, 29 Oct 2015, 01:53:35
015330,22.2856, 29 Oct 2015, 01:54:05
015400,22.2823, 29 Oct 2015, 01:54:34
015430,22.2797, 29 Oct 2015, 01:55:04
015500,22.2768, 29 Oct 2015, 01:55:35
015530,22.2743, 29 Oct 2015, 01:56:04
015600,22.2731, 29 Oct 2015, 01:56:34
015630,22.2711, 29 Oct 2015, 01:57:04
015700,22.2703, 29 Oct 2015, 01:57:35
015730,22.2695, 29 Oct 2015, 01:58:04
015800,22.2687, 29 Oct 2015, 01:58:34
015830,22.2691, 29 Oct 2015, 01:59:04
015900,22.27, 29 Oct 2015, 01:59:35
015930,22.27, 29 Oct 2015, 02:00:05
020000,22.2708, 29 Oct 2015, 02:00:34
020030,22.2716, 29 Oct 2015, 02:01:04
020100,22.2729, 29 Oct 2015, 02:01:34
020130,22.2738, 29 Oct 2015, 02:02:05
020200,22.2738, 29 Oct 2015, 02:02:34
020230,22.2741, 29 Oct 2015, 02:03:04
020300,22.2718, 29 Oct 2015, 02:03:34
020330,22.2693, 29 Oct 2015, 02:04:05
020400,22.2647, 29 Oct 2015, 02:04:35
020430,22.2611, 29 Oct 2015, 02:05:04
020500,22.2559, 29 Oct 2015, 02:05:35
020530,22.2524, 29 Oct 2015, 02:06:05
020600,22.2499, 29 Oct 2015, 02:06:35
020630,22.2483, 29 Oct 2015, 02:07:05
020700,22.2474, 29 Oct 2015, 02:07:35
020730,22.2479, 29 Oct 2015, 02:08:05
020830,22.2491, 29 Oct 2015, 02:09:05
020900,22.2498, 29 Oct 2015, 02:09:35
020930,22.2496, 29 Oct 2015, 02:10:05
021000,22.2483, 29 Oct 2015, 02:10:35
021030,22.2473, 29 Oct 2015, 02:11:05
021100,22.2459, 29 Oct 2015, 02:11:35
021130,22.2441, 29 Oct 2015, 02:12:05
021200,22.2426, 29 Oct 2015, 02:12:35
021230,22.2408, 29 Oct 2015, 02:13:05
021300,22.239, 29 Oct 2015, 02:13:35
021330,22.2365, 29 Oct 2015, 02:14:05
021400,22.2343, 29 Oct 2015, 02:14:35
021430,22.2306, 29 Oct 2015, 02:15:05
021500,22.2268, 29 Oct 2015, 02:15:35
021530,22.2223, 29 Oct 2015, 02:16:05
021600,22.2165, 29 Oct 2015, 02:16:35
021630,22.2124, 29 Oct 2015, 02:17:04
021700,22.2074, 29 Oct 2015, 02:17:35
021730,22.2015, 29 Oct 2015, 02:18:05
021800,22.1959, 29 Oct 2015, 02:18:35
021830,22.1909, 29 Oct 2015, 02:19:04
021900,22.1845, 29 Oct 2015, 02:19:35
021930,22.1795, 29 Oct 2015, 02:20:05
022000,22.1729, 29 Oct 2015, 02:20:35
022030,22.1672, 29 Oct 2015, 02:21:05
022100,22.1615, 29 Oct 2015, 02:21:34
022130,22.1558, 29 Oct 2015, 02:22:05
022200,22.15, 29 Oct 2015, 02:22:35
022230,22.1438, 29 Oct 2015, 02:23:05
022300,22.1367, 29 Oct 2015, 02:23:34
022330,22.1292, 29 Oct 2015, 02:24:05
022400,22.1227, 29 Oct 2015, 02:24:35
022430,22.1139, 29 Oct 2015, 02:25:05
022500,22.1068, 29 Oct 2015, 02:25:34
022530,22.1019, 29 Oct 2015, 02:26:04
022600,22.0963, 29 Oct 2015, 02:26:35
022630,22.0918, 29 Oct 2015, 02:27:05
022700,22.0889, 29 Oct 2015, 02:27:34
022730,22.0867, 29 Oct 2015, 02:28:04
022800,22.0841, 29 Oct 2015, 02:28:35
022830,22.0808, 29 Oct 2015, 02:29:05
022930,22.0732, 29 Oct 2015, 02:30:04
023000,22.0709, 29 Oct 2015, 02:30:34
023030,22.0682, 29 Oct 2015, 02:31:05
023100,22.0658, 29 Oct 2015, 02:31:35
023130,22.064, 29 Oct 2015, 02:32:04
023200,22.0612, 29 Oct 2015, 02:32:34
023230,22.0581, 29 Oct 2015, 02:33:05
023300,22.0542, 29 Oct 2015, 02:33:35
023330,22.0496, 29 Oct 2015, 02:34:05
023400,22.0458, 29 Oct 2015, 02:34:34
023430,22.0419, 29 Oct 2015, 02:35:04
023500,22.0381, 29 Oct 2015, 02:35:35
023530,22.0339, 29 Oct 2015, 02:36:04
023600,22.0279, 29 Oct 2015, 02:36:34
023630,22.0216, 29 Oct 2015, 02:37:04
023700,22.0159, 29 Oct 2015, 02:37:34
023730,22.0093, 29 Oct 2015, 02:38:05
023800,22.0027, 29 Oct 2015, 02:38:34
023830,21.9959, 29 Oct 2015, 02:39:04
023900,21.9877, 29 Oct 2015, 02:39:34
023930,21.98, 29 Oct 2015, 02:40:05
024000,21.9712, 29 Oct 2015, 02:40:34
024030,21.9612, 29 Oct 2015, 02:41:04
024100,21.9518, 29 Oct 2015, 02:41:34
024130,21.9416, 29 Oct 2015, 02:42:05
024200,21.9341, 29 Oct 2015, 02:42:34
024230,21.9257, 29 Oct 2015, 02:43:04
024300,21.9194, 29 Oct 2015, 02:43:34
024330,21.9147, 29 Oct 2015, 02:44:05
024400,21.911, 29 Oct 2015, 02:44:34
024430,21.9078, 29 Oct 2015, 02:45:04
024500,21.9037, 29 Oct 2015, 02:45:35
024530,21.9006, 29 Oct 2015, 02:46:05
024600,21.8966, 29 Oct 2015, 02:46:35
024630,21.8931, 29 Oct 2015, 02:47:05
024700,21.8901, 29 Oct 2015, 02:47:35
024730,21.8867, 29 Oct 2015, 02:48:05
024800,21.8838, 29 Oct 2015, 02:48:35
024830,21.8795, 29 Oct 2015, 02:49:05
024900,21.8768, 29 Oct 2015, 02:49:35
024930,21.8724, 29 Oct 2015, 02:50:05
025000,21.869, 29 Oct 2015, 02:50:35
025030,21.8651, 29 Oct 2015, 02:51:05
025100,21.8606, 29 Oct 2015, 02:51:35
025130,21.856, 29 Oct 2015, 02:52:05
025200,21.8496, 29 Oct 2015, 02:52:35
025230,21.8429, 29 Oct 2015, 02:53:05
025300,21.8354, 29 Oct 2015, 02:53:35
025330,21.8294, 29 Oct 2015, 02:54:05
025400,21.8209, 29 Oct 2015, 02:54:35
025430,21.8137, 29 Oct 2015, 02:55:05
025500,21.8068, 29 Oct 2015, 02:55:34
025530,21.7999, 29 Oct 2015, 02:56:05
025600,21.7927, 29 Oct 2015, 02:56:35
025630,21.786, 29 Oct 2015, 02:57:05
025700,21.7798, 29 Oct 2015, 02:57:34
025730,21.7728, 29 Oct 2015, 02:58:05
025800,21.7657, 29 Oct 2015, 02:58:35
025830,21.7599, 29 Oct 2015, 02:59:05
025900,21.7547, 29 Oct 2015, 02:59:34
025930,21.7482, 29 Oct 2015, 03:00:05
030000,21.7437, 29 Oct 2015, 03:00:35
030030,21.7404, 29 Oct 2015, 03:01:05
030100,21.7377, 29 Oct 2015, 03:01:34
030130,21.7356, 29 Oct 2015, 03:02:05
030200,21.733, 29 Oct 2015, 03:02:35
030230,21.7316, 29 Oct 2015, 03:03:05
030300,21.7294, 29 Oct 2015, 03:03:34
030330,21.7264, 29 Oct 2015, 03:04:05
030400,21.7227, 29 Oct 2015, 03:04:35
030430,21.7182, 29 Oct 2015, 03:05:05
030500,21.7137, 29 Oct 2015, 03:05:34
030530,21.7085, 29 Oct 2015, 03:06:04
030600,21.704, 29 Oct 2015, 03:06:35
030630,21.6979, 29 Oct 2015, 03:07:05
030700,21.6905, 29 Oct 2015, 03:07:34
030730,21.6854, 29 Oct 2015, 03:08:04
030800,21.6839, 29 Oct 2015, 03:08:35
030830,21.6836, 29 Oct 2015, 03:09:05
030900,21.6833, 29 Oct 2015, 03:09:34
030930,21.683, 29 Oct 2015, 03:10:04
031000,21.6805, 29 Oct 2015, 03:10:35
031030,21.6763, 29 Oct 2015, 03:11:05
031100,21.6706, 29 Oct 2015, 03:11:34
031130,21.6622, 29 Oct 2015, 03:12:04
031200,21.6539, 29 Oct 2015, 03:12:35
031230,21.6461, 29 Oct 2015, 03:13:05
031330,21.6334, 29 Oct 2015, 03:14:04
031400,21.6263, 29 Oct 2015, 03:14:35
031430,21.618, 29 Oct 2015, 03:15:05
031500,21.6097, 29 Oct 2015, 03:15:34
031530,21.5967, 29 Oct 2015, 03:16:04
031600,21.5825, 29 Oct 2015, 03:16:34
031630,21.567, 29 Oct 2015, 03:17:05
031700,21.553, 29 Oct 2015, 03:17:34
031730,21.5386, 29 Oct 2015, 03:18:04
031800,21.5242, 29 Oct 2015, 03:18:34
031830,21.5086, 29 Oct 2015, 03:19:05
031900,21.4948, 29 Oct 2015, 03:19:34
031930,21.4823, 29 Oct 2015, 03:20:04
032000,21.4712, 29 Oct 2015, 03:20:34
032030,21.4588, 29 Oct 2015, 03:21:05
032100,21.4493, 29 Oct 2015, 03:21:34
032130,21.4429, 29 Oct 2015, 03:22:04
032200,21.44, 29 Oct 2015, 03:22:34
032230,21.4395, 29 Oct 2015, 03:23:05
032300,21.4406, 29 Oct 2015, 03:23:34
032330,21.4406, 29 Oct 2015, 03:24:04
032400,21.441, 29 Oct 2015, 03:24:34
032430,21.4418, 29 Oct 2015, 03:25:05
032500,21.4434, 29 Oct 2015, 03:25:35
032530,21.4456, 29 Oct 2015, 03:26:05
032600,21.4464, 29 Oct 2015, 03:26:35
032630,21.4463, 29 Oct 2015, 03:27:06
032700,21.4453, 29 Oct 2015, 03:27:35
032730,21.4445, 29 Oct 2015, 03:28:05
032800,21.4438, 29 Oct 2015, 03:28:35
032830,21.4426, 29 Oct 2015, 03:29:06
032900,21.4416, 29 Oct 2015, 03:29:35
032930,21.4405, 29 Oct 2015, 03:30:05
033000,21.4401, 29 Oct 2015, 03:30:35
033030,21.4395, 29 Oct 2015, 03:31:05
033100,21.4386, 29 Oct 2015, 03:31:35
033130,21.4383, 29 Oct 2015, 03:32:05
033200,21.4383, 29 Oct 2015, 03:32:35
033230,21.4397, 29 Oct 2015, 03:33:05
033300,21.4398, 29 Oct 2015, 03:33:35
033330,21.44, 29 Oct 2015, 03:34:05
033400,21.4383, 29 Oct 2015, 03:34:35
033430,21.4367, 29 Oct 2015, 03:35:05
033500,21.4357, 29 Oct 2015, 03:35:35
033530,21.4332, 29 Oct 2015, 03:36:05
033600,21.4332, 29 Oct 2015, 03:36:35
033700,21.4292, 29 Oct 2015, 03:37:35
033730,21.4263, 29 Oct 2015, 03:38:05
033800,21.4229, 29 Oct 2015, 03:38:35
033830,21.4195, 29 Oct 2015, 03:39:05
033900,21.4173, 29 Oct 2015, 03:39:35
033930,21.4149, 29 Oct 2015, 03:40:05
034000,21.4113, 29 Oct 2015, 03:40:35
034030,21.408, 29 Oct 2015, 03:41:05
034100,21.4052, 29 Oct 2015, 03:41:34
034130,21.4018, 29 Oct 2015, 03:42:05
034200,21.3982, 29 Oct 2015, 03:42:35
034230,21.3955, 29 Oct 2015, 03:43:05
034300,21.3928, 29 Oct 2015, 03:43:34
034330,21.391, 29 Oct 2015, 03:44:05
034400,21.3898, 29 Oct 2015, 03:44:35
034430,21.3893, 29 Oct 2015, 03:45:05
034500,21.3893, 29 Oct 2015, 03:45:34
034530,21.3886, 29 Oct 2015, 03:46:05
034600,21.3886, 29 Oct 2015, 03:46:35
034630,21.3886, 29 Oct 2015, 03:47:04
034700,21.3888, 29 Oct 2015, 03:47:34
034730,21.3912, 29 Oct 2015, 03:48:05
034800,21.3928, 29 Oct 2015, 03:48:35
034900,21.3929, 29 Oct 2015, 03:49:34
034930,21.394, 29 Oct 2015, 03:50:05
035000,21.3961, 29 Oct 2015, 03:50:35
035030,21.3987, 29 Oct 2015, 03:51:05
035100,21.4001, 29 Oct 2015, 03:51:34
035130,21.4031, 29 Oct 2015, 03:52:04
035200,21.406, 29 Oct 2015, 03:52:35
035230,21.4091, 29 Oct 2015, 03:53:05
035300,21.4107, 29 Oct 2015, 03:53:34
035330,21.4124, 29 Oct 2015, 03:54:04
035400,21.4127, 29 Oct 2015, 03:54:35
035430,21.4129, 29 Oct 2015, 03:55:05
035500,21.4134, 29 Oct 2015, 03:55:34
035530,21.4136, 29 Oct 2015, 03:56:04
035600,21.4129, 29 Oct 2015, 03:56:35
035630,21.4119, 29 Oct 2015, 03:57:04
035700,21.4109, 29 Oct 2015, 03:57:34
035730,21.409, 29 Oct 2015, 03:58:04
035800,21.4086, 29 Oct 2015, 03:58:35
035830,21.4082, 29 Oct 2015, 03:59:04
035900,21.4077, 29 Oct 2015, 03:59:34
035930,21.4077, 29 Oct 2015, 04:00:04
040000,21.4066, 29 Oct 2015, 04:00:35
040030,21.4082, 29 Oct 2015, 04:01:05
040100,21.4091, 29 Oct 2015, 04:01:34
040145,21.4111, 29 Oct 2015, 04:02:20
040200,21.4115, 29 Oct 2015, 04:02:34
040230,21.4117, 29 Oct 2015, 04:03:05
040300,21.4114, 29 Oct 2015, 04:03:35
040330,21.4095, 29 Oct 2015, 04:04:04
040400,21.4043, 29 Oct 2015, 04:04:34
040430,21.3985, 29 Oct 2015, 04:05:05
040500,21.3918, 29 Oct 2015, 04:05:35
040530,21.3873, 29 Oct 2015, 04:06:04
040600,21.3838, 29 Oct 2015, 04:06:34
040630,21.3799, 29 Oct 2015, 04:07:04
040700,21.3785, 29 Oct 2015, 04:07:35
040730,21.3764, 29 Oct 2015, 04:08:05
040800,21.3701, 29 Oct 2015, 04:08:34
040830,21.3634, 29 Oct 2015, 04:09:04
040900,21.3569, 29 Oct 2015, 04:09:35
040930,21.3503, 29 Oct 2015, 04:10:05
041000,21.3456, 29 Oct 2015, 04:10:34
041030,21.3427, 29 Oct 2015, 04:11:04
041100,21.3411, 29 Oct 2015, 04:11:35
041130,21.344, 29 Oct 2015, 04:12:05
041200,21.3483, 29 Oct 2015, 04:12:34
041230,21.3559, 29 Oct 2015, 04:13:04
041300,21.3655, 29 Oct 2015, 04:13:34
041330,21.377, 29 Oct 2015, 04:14:05
041400,21.388, 29 Oct 2015, 04:14:34
041430,21.3991, 29 Oct 2015, 04:15:04
041500,21.4093, 29 Oct 2015, 04:15:34
041530,21.4171, 29 Oct 2015, 04:16:05
041600,21.4213, 29 Oct 2015, 04:16:34
041630,21.4251, 29 Oct 2015, 04:17:04
041700,21.4267, 29 Oct 2015, 04:17:34
041730,21.4282, 29 Oct 2015, 04:18:05
041800,21.4301, 29 Oct 2015, 04:18:34
041830,21.4295, 29 Oct 2015, 04:19:04
041900,21.4288, 29 Oct 2015, 04:19:34
041930,21.4271, 29 Oct 2015, 04:20:05
042000,21.4278, 29 Oct 2015, 04:20:34
042030,21.4274, 29 Oct 2015, 04:21:04
042100,21.4272, 29 Oct 2015, 04:21:34
042130,21.4269, 29 Oct 2015, 04:22:04
042200,21.4272, 29 Oct 2015, 04:22:35
042230,21.4261, 29 Oct 2015, 04:23:05
042300,21.4257, 29 Oct 2015, 04:23:35
042330,21.4258, 29 Oct 2015, 04:24:05
042400,21.4259, 29 Oct 2015, 04:24:35
042430,21.4254, 29 Oct 2015, 04:25:05
042500,21.4242, 29 Oct 2015, 04:25:35
042530,21.4233, 29 Oct 2015, 04:26:05
042600,21.4231, 29 Oct 2015, 04:26:35
042630,21.4231, 29 Oct 2015, 04:27:05
042700,21.4233, 29 Oct 2015, 04:27:35
042730,21.4231, 29 Oct 2015, 04:28:05
042800,21.4223, 29 Oct 2015, 04:28:35
042830,21.4214, 29 Oct 2015, 04:29:05
042900,21.4221, 29 Oct 2015, 04:29:35
042930,21.422, 29 Oct 2015, 04:30:05
043000,21.4216, 29 Oct 2015, 04:30:35
043030,21.4219, 29 Oct 2015, 04:31:05
043100,21.4223, 29 Oct 2015, 04:31:35
043130,21.4209, 29 Oct 2015, 04:32:05
043200,21.421, 29 Oct 2015, 04:32:34
043230,21.4203, 29 Oct 2015, 04:33:05
043300,21.42, 29 Oct 2015, 04:33:35
043400,21.4202, 29 Oct 2015, 04:34:34
043430,21.42, 29 Oct 2015, 04:35:05
043500,21.4199, 29 Oct 2015, 04:35:35
043530,21.4188, 29 Oct 2015, 04:36:05
043600,21.4192, 29 Oct 2015, 04:36:34
043630,21.4194, 29 Oct 2015, 04:37:05
043700,21.4178, 29 Oct 2015, 04:37:35
043730,21.4146, 29 Oct 2015, 04:38:05
043800,21.4133, 29 Oct 2015, 04:38:34
043830,21.4133, 29 Oct 2015, 04:39:05
043900,21.4129, 29 Oct 2015, 04:39:35
043930,21.412, 29 Oct 2015, 04:40:05
044000,21.4114, 29 Oct 2015, 04:40:34
044030,21.4104, 29 Oct 2015, 04:41:05
044100,21.4081, 29 Oct 2015, 04:41:35
044130,21.4053, 29 Oct 2015, 04:42:05
044200,21.4024, 29 Oct 2015, 04:42:34
044230,21.4007, 29 Oct 2015, 04:43:05
044300,21.399, 29 Oct 2015, 04:43:35
044330,21.3976, 29 Oct 2015, 04:44:04
044400,21.398, 29 Oct 2015, 04:44:34
044430,21.3959, 29 Oct 2015, 04:45:05
044500,21.3953, 29 Oct 2015, 04:45:35
044600,21.391, 29 Oct 2015, 04:46:34
044630,21.39, 29 Oct 2015, 04:47:04
044700,21.388, 29 Oct 2015, 04:47:35
044730,21.3873, 29 Oct 2015, 04:48:05
044800,21.3871, 29 Oct 2015, 04:48:34
044830,21.3872, 29 Oct 2015, 04:49:04
044900,21.3878, 29 Oct 2015, 04:49:35
044930,21.3892, 29 Oct 2015, 04:50:05
045000,21.3887, 29 Oct 2015, 04:50:34
045030,21.3884, 29 Oct 2015, 04:51:04
045100,21.3884, 29 Oct 2015, 04:51:35
045130,21.387, 29 Oct 2015, 04:52:05
045200,21.3841, 29 Oct 2015, 04:52:34
045230,21.3806, 29 Oct 2015, 04:53:04
045300,21.3769, 29 Oct 2015, 04:53:35
045330,21.3726, 29 Oct 2015, 04:54:04
045400,21.3689, 29 Oct 2015, 04:54:34
045430,21.3637, 29 Oct 2015, 04:55:04
045500,21.3575, 29 Oct 2015, 04:55:35
045530,21.3502, 29 Oct 2015, 04:56:04
045600,21.3412, 29 Oct 2015, 04:56:34
045630,21.3317, 29 Oct 2015, 04:57:04
045700,21.3223, 29 Oct 2015, 04:57:35
045800,21.3062, 29 Oct 2015, 04:58:34
045830,21.2997, 29 Oct 2015, 04:59:04
045900,21.2922, 29 Oct 2015, 04:59:34
045930,21.2845, 29 Oct 2015, 05:00:05
050000,21.2769, 29 Oct 2015, 05:00:34
050030,21.2686, 29 Oct 2015, 05:01:04
050100,21.2609, 29 Oct 2015, 05:01:34
050130,21.2544, 29 Oct 2015, 05:02:05
050200,21.2486, 29 Oct 2015, 05:02:35
050230,21.2433, 29 Oct 2015, 05:03:05
050300,21.2361, 29 Oct 2015, 05:03:35
050330,21.2306, 29 Oct 2015, 05:04:05
050400,21.2249, 29 Oct 2015, 05:04:35
050430,21.2199, 29 Oct 2015, 05:05:05
050500,21.2165, 29 Oct 2015, 05:05:35
050530,21.2111, 29 Oct 2015, 05:06:05
050600,21.2061, 29 Oct 2015, 05:06:35
050630,21.2006, 29 Oct 2015, 05:07:05
050700,21.1956, 29 Oct 2015, 05:07:35
050730,21.1908, 29 Oct 2015, 05:08:05
050800,21.1867, 29 Oct 2015, 05:08:35
050830,21.182, 29 Oct 2015, 05:09:05
050900,21.1787, 29 Oct 2015, 05:09:35
050930,21.1743, 29 Oct 2015, 05:10:05
051000,21.1704, 29 Oct 2015, 05:10:35
051100,21.1637, 29 Oct 2015, 05:11:35
051130,21.16, 29 Oct 2015, 05:12:05
051200,21.1553, 29 Oct 2015, 05:12:35
051230,21.1493, 29 Oct 2015, 05:13:04
051300,21.142, 29 Oct 2015, 05:13:35
051330,21.1339, 29 Oct 2015, 05:14:05
051400,21.1241, 29 Oct 2015, 05:14:35
051500,21.1087, 29 Oct 2015, 05:15:34
051530,21.1002, 29 Oct 2015, 05:16:05
051600,21.0933, 29 Oct 2015, 05:16:35
051630,21.0862, 29 Oct 2015, 05:17:05
051700,21.0805, 29 Oct 2015, 05:17:34